Airfield :
LOGIN :

Register | Disclaimer

   EN    FR    IT 

 










Legend :    VFR   Marginal VFR   IFR   Intensive IFR   Very Intensive IFR
Visi :
Ceiling :
>= 8 km
>= 3000ft
5 to 8 km
1000 to 3000 ft
1500m to 5 km
500 to 1000 ft
800 to 1500m
200 to 500 ft
< 800m
< 200 ft
Symbols :   Thunderstorms  Fog  Heavy snow  Heavy precipitations  Wind > 20 kt
SIGMETs :     Misc.  Thunderstorms  Icing  Turbulence  Mountain Waves  Volcanic Ashes







- Airport Elevation : 333 ft


LIPL - Ghedi Brescia (Mil)

CURRENT METAR :
  • 231555Z /////KT CAVOK 32/20 Q1012 RMK FEW FEW180 VIS MIN 9999 WIND THR31 26005KT BLU

EXPIRED METARs :
  • 231455Z /////KT 9999 FEW050 31/19 Q1012 RMK FEW VIS MIN 9999 WIND THR31 27004KT BLU
  • 231355Z /////KT 9999 FEW060 31/19 Q1013 RMK FEW VIS MIN 9999 WIND THR31 25005KT 200V350 BLU

TAF TAF LIPL
Valid from the 23 at 15:00 until the 24 at 00:00 UTC


231400Z 2315/2324 27005KT 9999 FEW060
BECMG 2319/2321 10005KT
BECMG 2322/2324 9999 SCT020 BKN030
No reported NOTAMs for that airfield.



MET'MAP, your aeronautical weather chart ! - Copyright ORBIFLY December 2007 - Disclaimer

ORBIFLY MET'MAP TEAM :

Programming & Development : Alexandra Zaïnal
Concept & Development : Baudouin d'Aumeries
Co-Development & Prog : Marc-Olivier Méhu
Technical & hardware support : Manuel Goepfert

Contact : metmap@orbifly.com




SOURCES & CREDITS :

   NOAA